Location: Newark
(52.3500°N, 175.9667°E)
Time: 07:07:30
(UTC+00:00)

S-56A Canister/Altair - Pass Details

Date: 23 April 2021
Orbit: 631 x 2501 km, 38.9° (Epoch: 12 May)

Event Time Altitude Azimuth Distance (km) Brightness Sun altitude
Rises 14:12:36 0° 258° (WSW) 3,888 - -20.1°
Reaches altitude 10° 14:16:41 10° 239° (WSW) 2,599 - -19.8°
Maximum altitude 14:20:09 16° 202° (SSW) 1,961 - -19.5°
Drops below altitude 10° 14:23:10 10° 164° (SSE) 2,178 - -19.2°
Exits shadow 14:26:01 - 142° (SE) 2,935 10.3 -19.0°
Sets 14:26:08 0° 142° (SE) 2,970 10.4 -19.0°
